Погода в Бологое

Россия / Тверская область     57°53′08″N   34°03′13″E
темп.,
°C
ветер,
м/с
пор.,
м/с
влажн.,
%
обл.,
%
осадки,
мм/ч
давл.,
гПа
погр.,
м
14 мая, пт
пт1400:00+10ю28866 0.0 1013245
03:00+7ююв289812 0.0 1014218
06:00+8ю27912 0.0 1015236
09:00+14ю465910 0.0 1015996
12:00+17ю4647100 0.0 10141758
15:00+18ююв4646100 0.0 10142009
18:00+18юв36538 0.0 10121614
21:00+13вюв26755 0.0 1011150
15 мая, сб
сб1500:00+10вюв2693100 0.0 101199
03:00+10вюв2297100 0.0 101032
06:00+11вюв269587 0.0 1009176
09:00+17вюв3573100 0.1 1008565
12:00+20ююв4666100 0.3 10071140
15:00+21ю355913 0.9 10051415
18:00+19ююз35683 1.5 1004907
21:00+14ю22919 1.8 100516
16 мая, вс
вс1600:00+12ююз229556 0.1 100523
03:00+11ююз249629 0.1 100571
06:00+12ююз259527 0.0 1006155
09:00+17юз357446 0.0 1006690
12:00+17зюз347696 2.2 1007955
15:00+20з355629 2.8 10081567
18:00+18з357936 1.8 1008791
21:00+13з23965 3.4 100964
17 мая, пн
пн1700:00+12зсз239813 0.0 101150
03:00+11з119816 0.0 101212
06:00+12ююз11969 0.0 101342
09:00+17ю1277100 0.0 1013474
12:00+21ююв345799 0.0 10131345
15:00+23ююв3546100 0.0 10122078
18:00+21юв3659100 0.0 1011695
21:00+16вюв3985100 0.0 1011209
18 мая, вт
вт1800:00+15юв31488100 0.6 1010425
03:00+14в31195100 1.3 1008290
06:00+15вюв4139561 0.1 1006405
09:00+20юв5117285 0.1 1005643
12:00+24ююв51054100 0.0 10041282
15:00+26юв6946100 0.1 10032275
18:00+21ююв51176100 1.3 1003973
21:00+17ююв6148791 3.6 1003721